C/2019 E3 ( ATLAS )

Japanese version
Home page
Updated on July 27, 2024

---------------------------------------------------------------------

* Profile

Discovery Date March 5, 2019
Magnitude 18.4 mag
Discoverer Asteroid Terrestrial-Impact Last Alert System (ATLAS) search program

* Pictures

* Orbital Elements

Epoch 2024 Mar. 31.0 TT = JDT 2460400.5
T 2023 Nov. 15.37720 TT                                 Rudenko
q  10.3130120            (2000.0)            P               Q
z  +0.0001528      Peri.  280.70469     +0.15957301     +0.96235497
 +/-0.0000003      Node   347.22551     +0.26392861     -0.25635352
e   0.9984244      Incl.   84.30066     -0.95125083     +0.09030936
>From 750 observations 2013 Apr. 1-2024 Feb. 16, mean residual 0".5.

* Finding Charts

* Magnitudes Graph

        m1 = 1.5 + 5 log d + 10.0 log r

---------------------------------------------------------------------

The orbital elements are published on M.P.E.C. 2024-D126.
The charts are made with StellaNavigator Ver.10 (AstroArts).
The magnitudes graphs are made with Comet for Windows.

---------------------------------------------------------------------

Copyright(C) Seiichi Yoshida (comet@aerith.net). All rights reserved.